Location: Asheville, NC
(35.6000°N, 82.5500°W)
Time: 17:03:03
(UTC-04:00)

DOVE 4 - Pass Details

Date: 11 March 2018
Orbit: 589 x 803 km, 97.7° (Epoch: 18 June)

Event Time Altitude Azimuth Distance (km) Brightness Sun altitude
Rises 05:31:11 0° 20° (NNE) 3,304 ? -28.1°
Reaches altitude 10° 05:33:43 10° 28° (NNE) 2,356 ? -27.6°
Maximum altitude 05:38:35 39° 97° (E) 1,138 ? -26.6°
Drops below altitude 10° 05:43:14 10° 166° (SSE) 2,247 ? -25.7°
Sets 05:45:35 0° 174° (S) 3,133 ? -25.2°
